| time (UTC) | temp C | wind direction | speed KPH | gust KPH | rain 1hr cm | rain 24hr cm | rain mn cm | humidity % | barometer mb |
| 20260901150153 | 29 | 45 | 4.8 | 9.7 | 0.00 | 0.00 | 0.00 | 79 | 1013.5 |
| 20260901144537 | 29 | 28 | 4.8 | 8.0 | 0.00 | 0.05 | 0.00 | 79 | 1013.3 |
| 20260901143018 | 28 | 18 | 4.8 | 9.7 | 0.00 | 0.05 | 0.00 | 82 | 1013.3 |
| 20260901141555 | 28 | 11 | 4.8 | 8.0 | 0.00 | 0.05 | 0.00 | 84 | 1013.4 |
| 20260901140140 | 27 | 25 | 3.2 | 6.4 | 0.00 | 0.05 | 0.00 | 84 | 1013.4 |
| 20260901134530 | 27 | 30 | 1.6 | 6.4 | 0.00 | 0.05 | 0.00 | 86 | 1013.4 |
| 20260901133022 | 27 | 31 | 3.2 | 6.4 | 0.00 | 0.05 | 0.00 | 87 | 1013.3 |
| 20260901131615 | 26 | 27 | 3.2 | 8.0 | 0.00 | 0.05 | 0.00 | 89 | 1013.2 |
| 20260901131511 | 26 | 27 | 4.8 | 8.0 | 0.00 | 0.05 | 0.00 | 89 | 1013.3 |
| 20260901130149 | 26 | 48 | 3.2 | 8.0 | 0.00 | 0.05 | 0.00 | 89 | 1013.2 |
| 20260901124533 | 27 | 351 | 3.2 | 6.4 | 0.00 | 0.05 | 0.00 | 88 | 1012.8 |
| 20260901123012 | 27 | 5 | 1.6 | 4.8 | 0.00 | 0.05 | 0.00 | 87 | 1012.6 |
| 20260901121552 | 27 | 42 | 0.0 | 3.2 | 0.00 | 0.05 | 0.00 | 87 | 1012.6 |
| 20260901120138 | 27 | 42 | 1.6 | 4.8 | 0.00 | 0.05 | 0.00 | 88 | 1012.6 |
| 20260901114525 | 27 | 28 | 0.0 | 6.4 | 0.00 | 0.05 | 0.00 | 89 | 1012.6 |
| 20260901113012 | 27 | 15 | 1.6 | 6.4 | 0.00 | 0.05 | 0.00 | 88 | 1012.7 |
| 20260901111552 | 27 | 22 | 3.2 | 8.0 | 0.00 | 0.05 | 0.00 | 88 | 1012.7 |
| 20260901110148 | 27 | 20 | 4.8 | 8.0 | 0.00 | 0.05 | 0.00 | 87 | 1012.8 |
| 20260901104531 | 27 | 360 | 3.2 | 8.0 | 0.00 | 0.05 | 0.00 | 85 | 1012.8 |
| 20260901103020 | 28 | 30 | 3.2 | 4.8 | 0.00 | 0.05 | 0.00 | 84 | 1012.9 |
| 20260901101605 | 28 | 42 | 0.0 | 4.8 | 0.00 | 0.05 | 0.00 | 83 | 1012.9 |
| 20260901100133 | 28 | 42 | 1.6 | 3.2 | 0.00 | 0.05 | 0.00 | 84 | 1012.9 |
| 20260901094526 | 28 | 42 | 0.0 | 3.2 | 0.00 | 0.05 | 0.00 | 84 | 1013.0 |
| 20260901093023 | 28 | 42 | 0.0 | 4.8 | 0.00 | 0.05 | 0.00 | 84 | 1013.0 |
| 20260901091502 | 28 | 40 | 1.6 | 4.8 | 0.00 | 0.05 | 0.00 | 83 | 1013.0 |
| 20260901090151 | 28 | 44 | 0.0 | 3.2 | 0.00 | 0.05 | 0.00 | 82 | 1013.0 |
| 20260901084522 | 28 | 44 | 0.0 | 3.2 | 0.00 | 0.05 | 0.00 | 84 | 1013.0 |
| 20260901083027 | 28 | 43 | 3.2 | 6.4 | 0.00 | 0.05 | 0.00 | 84 | 1013.1 |
| 20260901081558 | 28 | 25 | 1.6 | 6.4 | 0.00 | 0.05 | 0.00 | 84 | 1013.2 |
| 20260901080011 | 28 | 350 | 3.2 | 6.4 | 0.00 | 0.05 | 0.00 | 82 | 1013.3 |
| 20260901074511 | 28 | 29 | 1.6 | 4.8 | 0.00 | 0.05 | 0.00 | 82 | 1013.4 |
| 20260901073100 | 28 | 30 | 1.6 | 4.8 | 0.00 | 0.05 | 0.00 | 82 | 1013.5 |
| 20260901071549 | 28 | 30 | 1.6 | 3.2 | 0.00 | 0.05 | 0.00 | 81 | 1013.5 |
| 20260901070002 | 29 | 25 | 0.0 | 4.8 | 0.00 | 0.05 | 0.00 | 81 | 1013.5 |
| 20260901064538 | 29 | 35 | 1.6 | 4.8 | 0.00 | 0.05 | 0.05 | 80 | 1013.7 |
| 20260901063009 | 29 | 19 | 1.6 | 4.8 | 0.00 | 0.05 | 0.05 | 80 | 1013.9 |
| 20260901061556 | 29 | 19 | 1.6 | 4.8 | 0.00 | 0.05 | 0.05 | 79 | 1013.8 |
| 20260901060147 | 30 | 13 | 1.6 | 6.4 | 0.00 | 0.05 | 0.05 | 79 | 1013.8 |
| 20260901054533 | 30 | 337 | 1.6 | 4.8 | 0.00 | 0.05 | 0.05 | 79 | 1013.7 |
| 20260901053009 | 30 | 337 | 1.6 | 4.8 | 0.00 | 0.05 | 0.05 | 78 | 1013.5 |
| 20260901051556 | 30 | 337 | 1.6 | 4.8 | 0.00 | 0.05 | 0.05 | 78 | 1013.7 |
| 20260901050016 | 30 | 325 | 1.6 | 4.8 | 0.00 | 0.05 | 0.05 | 78 | 1013.5 |
| 20260901044548 | 30 | 339 | 3.2 | 6.4 | 0.00 | 0.05 | 0.05 | 78 | 1013.4 |
| 20260901043024 | 30 | 334 | 1.6 | 4.8 | 0.00 | 0.05 | 0.05 | 78 | 1013.5 |
| 20260901041503 | 30 | 304 | 1.6 | 6.4 | 0.00 | 0.05 | 0.05 | 78 | 1013.4 |
| 20260901040146 | 30 | 319 | 3.2 | 6.4 | 0.00 | 0.05 | 0.05 | 78 | 1013.4 |
| 20260901034521 | 30 | 300 | 0.0 | 6.4 | 0.00 | 0.05 | 0.05 | 78 | 1013.4 |
| 20260901033003 | 30 | 315 | 4.8 | 8.0 | 0.00 | 0.05 | 0.05 | 77 | 1013.1 |
| 20260901031553 | 30 | 319 | 0.0 | 4.8 | 0.00 | 0.05 | 0.05 | 77 | 1012.9 |
| 20260901030136 | 30 | 288 | 3.2 | 6.4 | 0.00 | 0.05 | 0.05 | 77 | 1012.6 |
| 20260901024548 | 30 | 265 | 1.6 | 6.4 | 0.00 | 0.05 | 0.05 | 76 | 1012.3 |
| 20260901023043 | 30 | 279 | 3.2 | 9.7 | 0.00 | 0.05 | 0.05 | 77 | 1012.1 |
| 20260901021547 | 30 | 316 | 3.2 | 6.4 | 0.00 | 0.05 | 0.05 | 78 | 1011.9 |
| 20260901020030 | 30 | 277 | 1.6 | 6.4 | 0.00 | 0.05 | 0.05 | 78 | 1011.7 |
| 20260901014516 | 30 | 271 | 3.2 | 9.7 | 0.00 | 0.05 | 0.05 | 77 | 1011.3 |
| 20260901013008 | 30 | 255 | 3.2 | 11.3 | 0.00 | 0.05 | 0.05 | 77 | 1011.2 |
| 20260901011500 | 30 | 285 | 6.4 | 12.9 | 0.00 | 0.05 | 0.05 | 76 | 1011.3 |
| 20260901010034 | 30 | 241 | 3.2 | 8.0 | 0.00 | 0.05 | 0.05 | 77 | 1011.2 |
| 20260901004517 | 31 | 239 | 3.2 | 9.7 | 0.00 | 0.05 | 0.05 | 75 | 1011.1 |
| 20260901003010 | 31 | 254 | 4.8 | 11.3 | 0.00 | 0.05 | 0.05 | 75 | 1011.0 |
| 20260901001554 | 31 | 209 | 3.2 | 11.3 | 0.00 | 0.05 | 0.05 | 74 | 1011.0 |
| 20260901000140 | 31 | 246 | 6.4 | 11.3 | 0.00 | 0.05 | 0.05 | 73 | 1011.0 |
| 20260831234524 | 31 | 223 | 4.8 | 12.9 | 0.00 | 0.05 | 0.05 | 72 | 1011.0 |
| 20260831233017 | 31 | 220 | 4.8 | 12.9 | 0.00 | 0.05 | 0.05 | 72 | 1010.8 |
| 20260831231559 | 31 | 250 | 4.8 | 12.9 | 0.00 | 0.05 | 0.05 | 72 | 1010.8 |
| 20260831230038 | 31 | 240 | 4.8 | 14.5 | 0.00 | 0.05 | 0.05 | 72 | 1011.0 |
| 20260831224512 | 32 | 222 | 4.8 | 11.3 | 0.00 | 0.05 | 0.05 | 70 | 1011.1 |
| 20260831223006 | 31 | 225 | 8.0 | 16.1 | 0.00 | 0.05 | 0.05 | 71 | 1011.3 |
| 20260831221620 | 32 | 198 | 4.8 | 17.7 | 0.00 | 0.05 | 0.05 | 71 | 1011.3 |
| 20260831220139 | 32 | 215 | 6.4 | 17.7 | 0.00 | 0.05 | 0.05 | 69 | 1011.3 |
| 20260831214536 | 32 | 225 | 1.6 | 9.7 | 0.00 | 0.05 | 0.05 | 72 | 1011.5 |
| 20260831213024 | 31 | 119 | 4.8 | 12.9 | 0.00 | 0.05 | 0.05 | 71 | 1011.7 |
| 20260831211505 | 32 | 122 | 1.6 | 14.5 | 0.00 | 0.05 | 0.05 | 70 | 1012.1 |
| 20260831210025 | 31 | 182 | 1.6 | 11.3 | 0.00 | 0.05 | 0.05 | 70 | 1012.2 |
| 20260831204508 | 32 | 141 | 0.0 | 9.7 | 0.00 | 0.05 | 0.05 | 71 | 1012.5 |
| 20260831203047 | 31 | 172 | 1.6 | 16.1 | 0.00 | 0.05 | 0.05 | 70 | 1012.6 |
| 20260831201536 | 32 | 225 | 0.0 | 12.9 | 0.00 | 0.05 | 0.05 | 70 | 1012.7 |
| 20260831200133 | 32 | 107 | 1.6 | 12.9 | 0.00 | 0.05 | 0.05 | 68 | 1012.9 |
| 20260831194547 | 31 | 194 | 1.6 | 14.5 | 0.00 | 0.05 | 0.05 | 68 | 1013.1 |
| 20260831193009 | 32 | 111 | 3.2 | 14.5 | 0.00 | 0.05 | 0.05 | 68 | 1013.2 |
| 20260831191554 | 31 | 123 | 1.6 | 14.5 | 0.00 | 0.05 | 0.05 | 67 | 1013.5 |
| 20260831190150 | 31 | 140 | 1.6 | 12.9 | 0.00 | 0.05 | 0.05 | 67 | 1013.6 |
| 20260831184540 | 31 | 129 | 6.4 | 19.3 | 0.00 | 0.05 | 0.05 | 70 | 1013.8 |
| 20260831183001 | 31 | 121 | 4.8 | 12.9 | 0.00 | 0.05 | 0.05 | 68 | 1014.0 |
| 20260831181556 | 30 | 107 | 6.4 | 17.7 | 0.00 | 0.05 | 0.05 | 70 | 1014.2 |
| 20260831180026 | 31 | 151 | 3.2 | 16.1 | 0.00 | 0.05 | 0.05 | 68 | 1014.4 |
| 20260831174514 | 31 | 131 | 4.8 | 16.1 | 0.00 | 0.05 | 0.05 | 68 | 1014.5 |
| 20260831173009 | 30 | 182 | 0.0 | 16.1 | 0.00 | 0.05 | 0.05 | 72 | 1014.6 |
| 20260831171558 | 29 | 121 | 6.4 | 14.5 | 0.00 | 0.05 | 0.05 | 73 | 1014.5 |
| 20260831170150 | 29 | 104 | 6.4 | 16.1 | 0.00 | 0.05 | 0.05 | 75 | 1014.5 |
| 20260831164515 | 28 | 113 | 11.3 | 17.7 | 0.00 | 0.05 | 0.05 | 76 | 1014.3 |
| 20260831163006 | 28 | 92 | 8.0 | 14.5 | 0.00 | 0.05 | 0.05 | 79 | 1014.2 |
| 20260831161611 | 27 | 119 | 3.2 | 12.9 | 0.00 | 0.05 | 0.05 | 84 | 1014.1 |
| 20260831160023 | 27 | 109 | 3.2 | 8.0 | 0.00 | 0.05 | 0.05 | 86 | 1014.2 |
| 20260831154613 | 26 | 101 | 6.4 | 16.1 | 0.03 | 0.05 | 0.05 | 87 | 1014.1 |
| 20260831153055 | 25 | 65 | 8.0 | 16.1 | 0.05 | 0.05 | 0.05 | 90 | 1014.2 |
| 20260831151547 | 25 | 92 | 9.7 | 22.5 | 0.05 | 0.05 | 0.05 | 91 | 1014.4 |